[[{"header":{"parameterUnit":"m.s-1","parameterCategory":1,"la1":30.2991,"la2":30.254,"lo1":-89.0895,"lo2":-89.0444,"dy":0.0017,"dx":0.0017,"nx":28,"ny":28,"refTime":"2025-04-02T03:00:00:Z","depth":0,"parameterNumber":2,"parameterNumberName":"U-component_of_WINDS"},"data":[0,0,0,0,0,0,0,0,0,0,0,0,0,0,0,0,0,0,0,0,0,0,0,0,0,0,0,0,0,0,0,0,0,0,0,0,0,0,0,0,0,0,0,0,0,0,0,0,0,0,0,0,0,0,0,0,0,0,-4.8568,-4.8569,0,-4.8732,-4.8734,-4.8736,-4.8773,-4.8772,-4.8771,-4.8769,-4.8936,-4.8941,-4.8947,0,0,0,0,0,0,0,0,0,0,0,0,0,-4.8283,-4.8288,-4.8567,-4.8569,-4.8572,-4.8732,-4.8734,-4.8736,-4.8773,-4.8772,-4.877,-4.8769,-4.8934,-4.894,-4.8947,0,0,0,0,0,0,0,0,0,0,0,0,0,-4.8423,-4.829,-4.8567,-4.8609,-4.8615,-4.8732,-4.8734,-4.8737,-4.8773,-4.8772,-4.877,-4.8768,-4.8932,-4.894,-4.8948,-4.9034,0,0,-4.8973,-4.8977,0,0,0,0,0,0,0,0,-4.8415,-4.8433,-4.8601,-4.8607,-4.8613,-4.873,-4.8695,-4.8836,-4.8774,-4.8713,-4.8769,-4.8767,-4.8869,-4.8882,-4.8917,-4.9042,-4.9049,-4.8974,-4.8979,-4.8982,-4.8985,0,0,0,0,0,0,0,-4.8405,-4.8426,-4.8633,-4.8603,-4.8611,-4.8619,-4.8637,-4.8722,-4.8798,-4.8718,-4.8721,-4.874,-4.8871,-4.8909,-4.8921,-4.9051,-4.8974,-4.8981,-4.8986,-4.8989,-4.9255,-4.9257,0,0,0,0,0,0,-4.8388,-4.8418,-4.8627,-4.8638,-4.8508,-4.8626,-4.8646,-4.8694,-4.8798,-4.8812,-4.8742,-4.8741,-4.8895,-4.8911,-4.8927,-4.9033,-4.8982,-4.899,-4.8995,-4.9253,-4.9255,-4.9257,0,0,0,0,0,0,-4.8382,-4.8407,-4.8621,-4.8529,-4.8557,-4.8633,-4.8687,-4.8698,-4.8736,-4.8816,-4.8829,-4.8766,-4.8895,-4.8915,-4.9007,-4.904,-4.8994,-4.9001,-4.925,-4.9253,-4.9256,-4.9247,0,0,0,0,0,0,-4.8374,-4.8404,-4.8438,-4.8529,-4.8562,-4.8698,-4.8689,-4.8703,-4.875,-4.8751,-4.8841,-4.8855,-4.8895,-4.8994,-4.9015,-4.905,-4.9008,-4.9247,-4.9252,-4.9255,-4.9245,-4.925,-4.9254,0,0,0,0,0,-4.8364,-4.8428,-4.8439,-4.8464,-4.8605,-4.87,-4.8719,-4.8764,-4.8752,-4.8786,-4.8838,-4.8852,-4.9033,-4.9004,-4.9027,-4.9065,-4.9246,-4.925,-4.9255,-4.9243,-4.9249,-4.9254,0,0,0,0,0,0,-4.8338,-4.8441,-4.8454,-4.8551,-4.8617,-4.8706,-4.8751,-4.8769,-4.8839,-4.8837,-4.889,-4.891,-4.8998,-4.9041,-4.9006,-4.9154,-4.9139,-4.9149,-4.9122,-4.9128,-4.9132,-4.9119,-4.9015,0,0,0,0,0,-4.8344,-4.8413,-4.8499,-4.8576,-4.8608,-4.8674,-4.8717,-4.8747,-4.8816,-4.8844,-4.8902,-4.8969,-4.9041,-4.9087,-4.9158,-4.9252,-4.9272,-4.929,-4.9295,-4.9298,-4.9305,-4.9357,-4.9366,-4.9273,-4.9273,-4.9273,0,0,-4.8355,-4.8421,-4.8461,-4.8572,-4.8627,-4.8696,-4.8697,-4.8771,-4.8823,-4.8855,-4.8945,-4.8991,-4.9069,-4.9162,-4.9206,-4.92,-4.9335,-4.9304,-4.9306,-4.9311,-4.9363,-4.9371,-4.9379,-4.9276,-4.9275,-4.9275,0,0,-4.8412,-4.8469,-4.8539,-4.8594,-4.8677,-4.872,-4.8737,-4.8825,-4.8856,-4.8948,-4.8974,-4.9036,-4.916,-4.9214,-4.9258,-4.9337,-4.9352,-4.9359,-4.9381,-4.9431,-4.9439,-4.9445,-4.9472,-4.9481,-4.9366,-4.9366,-4.9366,0,-4.8416,-4.8523,-4.8572,-4.8645,-4.8693,-4.8727,-4.8798,-4.8849,-4.895,-4.8982,-4.8975,-4.9131,-4.9186,-4.9292,-4.9311,-4.9347,-4.9366,-4.9347,-4.9434,-4.9441,-4.9448,-4.9474,-4.9484,-4.9366,-4.9366,-4.9366,-4.9366,0,-4.8523,-4.8597,-4.8644,-4.8741,-4.8795,-4.8866,-4.8926,-4.8974,-4.8999,-4.9043,-4.9136,-4.9204,-4.9289,-4.9317,-4.9342,-4.9427,-4.9421,-4.9423,-4.9409,-4.9456,-4.9481,-4.9492,-4.9367,-4.9366,-4.9366,-4.9366,0,0,-4.8566,-4.8692,-4.8708,-4.8752,-4.8847,-4.8904,-4.8978,-4.9062,-4.9101,-4.9171,-4.9232,-4.9337,-4.934,-4.939,-4.9422,-4.9466,-4.9523,-4.9464,-4.9466,-4.9471,-4.9619,-4.9615,-4.9626,-4.9535,-4.9537,-4.9539,-4.9612,0,-4.8634,-4.8765,-4.8812,-4.892,-4.8988,-4.9023,-4.9086,-4.9151,-4.9194,-4.9258,-4.9307,-4.9379,-4.9379,-4.9409,-4.9455,-4.9506,-4.9553,-4.9502,-4.9591,-4.9594,-4.9568,-4.9639,-4.9635,-4.9701,-4.9622,-4.9624,-4.9626,0,-4.8729,-4.88,-4.8915,-4.9001,-4.9031,-4.9088,-4.9168,-4.923,-4.9304,-4.9332,-4.9388,-4.9418,-4.9495,-4.9478,-4.9585,-4.9549,-4.9589,-4.962,-4.9624,-4.9632,-4.9611,-4.9647,-4.9723,-4.9732,-4.9642,-4.9641,-4.9639,0,-4.8746,-4.8871,-4.8956,-4.8993,-4.9097,-4.9135,-4.918,-4.9253,-4.93,-4.9371,-4.9402,-4.9481,-4.9523,-4.9583,-4.9633,-4.9616,-4.9735,-4.9722,-4.9759,-4.9758,-4.978,-4.9778,-4.9861,-4.981,-4.9809,-4.9809,-4.9809,0,-4.8815,-4.8884,-4.8965,-4.9017,-4.9095,-4.9149,-4.9224,-4.9271,-4.9335,-4.9396,-4.9432,-4.9488,-4.9551,-4.9616,-4.9656,-4.9737,-4.9757,-4.9781,-4.979,-4.9777,-4.9773,-4.9802,-4.9798,-4.9812,-4.9811,-4.9811,-4.981,0,-4.8847,-4.8905,-4.8999,-4.9089,-4.9114,-4.9167,-4.9244,-4.9295,-4.9341,-4.9418,-4.944,-4.9511,-4.9589,-4.9646,-4.9746,-4.9773,-4.986,-4.987,-4.9835,-4.9839,-4.9872,-4.9867,-4.9975,-4.9991,-4.993,-4.993,-4.9931,0,-4.8886,-4.8939,-4.9036,-4.9079,-4.9124,-4.9194,-4.9243,-4.9299,-4.9348,-4.9437,-4.9478,-4.9559,-4.9626,-4.9749,-4.981,-4.9887,-4.9898,-4.993,-4.9909,-4.9894,-4.9896,-4.9891,-4.9897,-4.9932,-4.9933,-4.9933,-4.9933,0,-4.8948,-4.8974,-4.9043,-4.9123,-4.918,-4.9246,-4.9311,-4.9345,-4.9412,-4.9466,-4.9547,-4.9599,-4.9702,-4.9781,-4.9865,-4.9911,-4.9933,-4.994,-4.9952,-4.9937,-4.9914,-4.9925,-4.984,-4.9936,-4.9936,-4.9936,-4.9936,-4.9936,-4.8984,-4.9033,-4.9108,-4.9184,-4.924,-4.93,-4.9353,-4.9406,-4.9474,-4.9562,-4.9592,-4.9675,-4.9748,-4.9862,-4.9909,-4.9975,-4.9973,-4.9992,-4.9996,-4.9999,-4.9997,-4.9906,-4.9991,-4.9991,-4.9991,-4.9991,-4.9991,0,-4.9046,-4.9097,-4.9166,-4.9257,-4.9317,-4.9334,-4.9408,-4.9457,-4.9529,-4.9596,-4.9662,-4.9755,-4.9832,-4.99,-4.998,-5.0019,-5.0032,-5.0038,-5.0035,-5.0045,-4.9995,-4.9975,-5.0027,-5.0027,-5.0027,-5.0027,-5.0027,-5.0027,-4.9086,-4.9169,-4.9204,-4.9315,-4.9366,-4.9448,-4.9488,-4.9544,-4.9598,-4.9699,-4.9764,-4.9808,-4.9875,-4.9961,-5.0032,-5.005,-5.0077,-5.0081,-5.0101,-5.0053,-5.0048,-5.0044,-5.0026,-5.0087,-5.0087,-5.0146,-5.0146,-5.0147]},{"header":{"parameterUnit":"m.s-1","parameterCategory":1,"la1":30.2991,"la2":30.254,"lo1":-89.0895,"lo2":-89.0444,"dy":0.0017,"dx":0.0017,"nx":28,"ny":28,"refTime":"2025-04-02T03:00:00:Z","depth":0,"parameterNumber":3,"parameterNumberName":"V-component_of_WINDS"},"data":[0,0,0,0,0,0,0,0,0,0,0,0,0,0,0,0,0,0,0,0,0,0,0,0,0,0,0,0,0,0,0,0,0,0,0,0,0,0,0,0,0,0,0,0,0,0,0,0,0,0,0,0,0,0,0,0,0,0,5.2507,5.2508,0,5.2605,5.2606,5.2607,5.2608,5.2607,5.2605,5.2604,5.2703,5.2707,5.271,0,0,0,0,0,0,0,0,0,0,0,0,0,5.2319,5.2322,5.2506,5.2508,5.2509,5.2605,5.2606,5.2608,5.2608,5.2606,5.2605,5.2603,5.2702,5.2706,5.2711,0,0,0,0,0,0,0,0,0,0,0,0,0,5.2407,5.2323,5.2506,5.2521,5.2523,5.2605,5.2606,5.2608,5.2608,5.2606,5.2605,5.2603,5.27,5.2706,5.2711,5.2784,0,0,5.2729,5.2731,0,0,0,0,0,0,0,0,5.2402,5.2414,5.2517,5.252,5.2523,5.2592,5.2576,5.2667,5.2609,5.2576,5.2604,5.2602,5.2667,5.2676,5.2698,5.2789,5.2793,5.2729,5.2733,5.2735,5.2737,0,0,0,0,0,0,0,5.2396,5.241,5.2545,5.2519,5.2522,5.2522,5.2533,5.2593,5.2631,5.2579,5.2579,5.2591,5.2669,5.2693,5.2701,5.2795,5.2729,5.2734,5.2738,5.274,5.2953,5.2955,0,0,0,0,0,0,5.2387,5.2404,5.2542,5.2548,5.2456,5.2527,5.2539,5.2572,5.263,5.2638,5.2592,5.259,5.2684,5.2694,5.2704,5.2796,5.2735,5.2741,5.2744,5.2951,5.2953,5.2956,0,0,0,0,0,0,5.2383,5.2399,5.2538,5.2477,5.2494,5.2533,5.2569,5.2575,5.2599,5.2641,5.2647,5.261,5.2683,5.2696,5.2765,5.2799,5.2743,5.2748,5.2948,5.2951,5.2955,5.2977,0,0,0,0,0,0,5.2377,5.2398,5.2426,5.2477,5.2498,5.2598,5.2571,5.2578,5.2609,5.2608,5.2659,5.2666,5.2682,5.2757,5.2771,5.2806,5.2753,5.2945,5.295,5.2954,5.2974,5.2981,5.2987,0,0,0,0,0,5.2371,5.2427,5.2427,5.2444,5.2534,5.26,5.2611,5.263,5.2612,5.2641,5.2668,5.2664,5.2793,5.2764,5.278,5.2817,5.2943,5.2948,5.2953,5.2971,5.298,5.2987,0,0,0,0,0,0,5.2377,5.2434,5.2435,5.251,5.255,5.26,5.2636,5.2638,5.2684,5.2681,5.2701,5.2713,5.2782,5.2806,5.2773,5.2892,5.2866,5.2874,5.2874,5.2882,5.2889,5.2882,5.2757,0,0,0,0,0,5.2388,5.2437,5.2484,5.2545,5.2566,5.2598,5.2627,5.2638,5.2681,5.2697,5.2729,5.277,5.282,5.2852,5.29,5.2977,5.2989,5.3011,5.3017,5.3023,5.303,5.3075,5.3085,5.2972,5.2972,5.2972,0,0,5.2409,5.2447,5.2476,5.2548,5.258,5.2632,5.2612,5.2666,5.2704,5.2705,5.2773,5.2798,5.2845,5.292,5.2954,5.2942,5.3064,5.3029,5.3033,5.3038,5.3081,5.3092,5.3101,5.2976,5.2975,5.2975,0,0,5.2475,5.2508,5.2564,5.2597,5.2648,5.2669,5.2682,5.2732,5.275,5.2818,5.2821,5.2866,5.2951,5.2985,5.3014,5.3095,5.3095,5.311,5.3146,5.3189,5.3198,5.3206,5.3237,5.3247,5.3117,5.3117,5.3117,0,5.2496,5.2573,5.2592,5.2648,5.268,5.2684,5.2742,5.2773,5.2836,5.2858,5.2844,5.2952,5.2984,5.3067,5.3088,5.311,5.3127,5.3105,5.3195,5.3203,5.3211,5.3241,5.3252,5.3119,5.3119,5.3118,5.3118,0,5.2597,5.265,5.269,5.2752,5.2788,5.2844,5.2872,5.2907,5.2915,5.2938,5.3009,5.3047,5.3105,5.3125,5.3132,5.321,5.3201,5.3191,5.3165,5.3223,5.3252,5.3263,5.3121,5.3121,5.312,5.312,0,0,5.2669,5.2743,5.2757,5.2787,5.2843,5.2885,5.2942,5.2999,5.3029,5.3072,5.3121,5.3194,5.3186,5.3218,5.323,5.3267,5.3332,5.3253,5.3254,5.3268,5.3422,5.3431,5.3443,5.3332,5.3334,5.3336,5.3419,0,5.2743,5.2845,5.2864,5.2953,5.3004,5.3009,5.3059,5.3099,5.3122,5.3169,5.3194,5.3246,5.323,5.325,5.3288,5.3316,5.3363,5.331,5.3378,5.338,5.3368,5.3458,5.3467,5.3543,5.343,5.3432,5.3433,0,5.2842,5.289,5.2984,5.3036,5.3058,5.3102,5.3157,5.3201,5.3247,5.3262,5.3299,5.3307,5.3367,5.3338,5.3422,5.3385,5.3414,5.3432,5.3436,5.3444,5.3411,5.347,5.3568,5.358,5.345,5.3449,5.3447,0,5.2888,5.2976,5.3044,5.3068,5.313,5.3162,5.3189,5.3233,5.3267,5.3314,5.3337,5.339,5.342,5.3461,5.3484,5.3461,5.3567,5.3539,5.3581,5.3581,5.3604,5.3602,5.371,5.362,5.362,5.362,5.3619,0,5.2969,5.3027,5.3066,5.3108,5.3173,5.3195,5.3259,5.3286,5.3326,5.3374,5.3381,5.3426,5.3452,5.3501,5.3519,5.3586,5.3599,5.3613,5.3617,5.3613,5.3612,5.3633,5.3629,5.3623,5.3622,5.3621,5.3621,0,5.3032,5.306,5.3135,5.3188,5.3203,5.3249,5.3294,5.3336,5.3359,5.342,5.3435,5.3472,5.353,5.3557,5.3627,5.364,5.3717,5.3717,5.3702,5.3704,5.3745,5.3742,5.3871,5.389,5.3786,5.3787,5.3788,0,5.3082,5.3127,5.3186,5.3219,5.3247,5.33,5.3335,5.3358,5.3394,5.3452,5.3487,5.3545,5.3593,5.3685,5.3719,5.3773,5.3776,5.3817,5.3784,5.3779,5.3779,5.3776,5.3782,5.3824,5.3825,5.3825,5.3826,0,5.317,5.3182,5.3233,5.3289,5.3331,5.3375,5.3419,5.3446,5.3477,5.3517,5.3577,5.3615,5.3688,5.3747,5.3804,5.3832,5.3835,5.3836,5.3849,5.3847,5.3837,5.3845,5.3721,5.3833,5.3833,5.3832,5.3832,5.3831,5.323,5.3271,5.3319,5.3375,5.3411,5.3453,5.3495,5.3525,5.3575,5.3638,5.3649,5.3713,5.376,5.3837,5.3867,5.3918,5.3908,5.3927,5.3932,5.3936,5.394,5.3828,5.3928,5.3928,5.3928,5.3928,5.3928,0,5.332,5.3351,5.3403,5.3465,5.351,5.3509,5.3558,5.3596,5.3653,5.3696,5.3744,5.3814,5.3871,5.3909,5.3967,5.4001,5.4004,5.4015,5.4014,5.4021,5.3944,5.3928,5.4012,5.4012,5.4012,5.4012,5.4012,5.4012,5.3372,5.3442,5.346,5.3549,5.358,5.3644,5.3672,5.3711,5.3746,5.3824,5.3872,5.3897,5.3939,5.4,5.4053,5.4063,5.4085,5.4097,5.4107,5.4035,5.4026,5.4018,5.4003,5.4101,5.4101,5.418,5.418,5.4181]}]]